| time (UTC) | temp F | wind direction | speed MPH | gust MPH | rain 1hr in | rain 24hr in | rain mn in | humidity % | barometer mb |
| 20260510230531 | 65 | 309 | 1.0 | 3.0 | 0.00 | 0.01 | 0.01 | 54 | 997.6 |
| 20260510230024 | 66 | 309 | 1.0 | 3.0 | 0.00 | 0.01 | 0.01 | 54 | 997.6 |
| 20260510225518 | 66 | 309 | 1.0 | 3.0 | 0.00 | 0.01 | 0.01 | 51 | 997.5 |
| 20260510225012 | 66 | 309 | 1.0 | 3.0 | 0.00 | 0.01 | 0.01 | 52 | 997.4 |
| 20260510224507 | 66 | 324 | 1.0 | 3.0 | 0.00 | 0.01 | 0.01 | 52 | 997.3 |
| 20260510222948 | 67 | 286 | 1.0 | 2.0 | 0.00 | 0.01 | 0.01 | 54 | 997.1 |
| 20260510222442 | 67 | 286 | 1.0 | 4.0 | 0.00 | 0.01 | 0.01 | 53 | 996.9 |
| 20260510221937 | 67 | 286 | 1.0 | 4.0 | 0.00 | 0.01 | 0.01 | 49 | 996.8 |
| 20260510220934 | 68 | 300 | 2.0 | 6.0 | 0.00 | 0.01 | 0.01 | 48 | 996.7 |
| 20260510220431 | 68 | 297 | 2.0 | 6.0 | 0.00 | 0.01 | 0.01 | 47 | 996.7 |
| 20260510215432 | 68 | 300 | 2.0 | 5.0 | 0.00 | 0.02 | 0.01 | 50 | 996.6 |
| 20260510213932 | 68 | 242 | 1.0 | 3.0 | 0.00 | 0.03 | 0.01 | 56 | 996.4 |
| 20260510212927 | 69 | 86 | 1.0 | 3.0 | 0.00 | 0.05 | 0.01 | 60 | 996.4 |
| 20260510212425 | 69 | 300 | 1.0 | 3.0 | 0.00 | 0.05 | 0.01 | 60 | 996.4 |
| 20260510211925 | 69 | 300 | 2.0 | 5.0 | 0.00 | 0.06 | 0.01 | 56 | 996.5 |
| 20260510211425 | 69 | 300 | 2.0 | 5.0 | 0.00 | 0.07 | 0.01 | 55 | 996.3 |
| 20260510210422 | 69 | 302 | 1.0 | 3.0 | 0.00 | 0.08 | 0.01 | 57 | 996.3 |
| 20260510205922 | 69 | 302 | 1.0 | 3.0 | 0.00 | 0.09 | 0.01 | 57 | 996.2 |
| 20260510205420 | 69 | 263 | 1.0 | 3.0 | 0.00 | 0.10 | 0.01 | 56 | 996.1 |
| 20260510204415 | 69 | 296 | 1.0 | 4.0 | 0.00 | 0.11 | 0.01 | 57 | 996.1 |
| 20260510203916 | 69 | 289 | 1.0 | 3.0 | 0.00 | 0.12 | 0.01 | 57 | 996.1 |
| 20260510203416 | 69 | 304 | 1.0 | 3.0 | 0.00 | 0.12 | 0.01 | 57 | 996.2 |
| 20260510202915 | 69 | 304 | 1.0 | 3.0 | 0.00 | 0.13 | 0.01 | 58 | 996.2 |
| 20260510202416 | 69 | 303 | 2.0 | 3.0 | 0.00 | 0.14 | 0.01 | 57 | 996.2 |
| 20260510201916 | 69 | 303 | 1.0 | 3.0 | 0.00 | 0.15 | 0.01 | 59 | 996.2 |
| 20260510201416 | 69 | 89 | 1.0 | 4.0 | 0.00 | 0.16 | 0.01 | 57 | 996.1 |
| 20260510200915 | 69 | 278 | 2.0 | 5.0 | 0.00 | 0.16 | 0.01 | 58 | 996.2 |
| 20260510200416 | 69 | 322 | 2.0 | 5.0 | 0.00 | 0.17 | 0.01 | 58 | 996.2 |
| 20260510195912 | 69 | 305 | 2.0 | 5.0 | 0.00 | 0.18 | 0.01 | 61 | 996.2 |
| 20260510195412 | 69 | 305 | 2.0 | 4.0 | 0.00 | 0.19 | 0.01 | 62 | 996.2 |
| 20260510194912 | 68 | 297 | 1.0 | 3.0 | 0.00 | 0.20 | 0.01 | 62 | 996.2 |
| 20260510194411 | 68 | 301 | 1.0 | 5.0 | 0.00 | 0.22 | 0.01 | 68 | 996.3 |
| 20260510193912 | 68 | 86 | 1.0 | 5.0 | 0.00 | 0.23 | 0.01 | 69 | 996.4 |
| 20260510193412 | 68 | 301 | 1.0 | 2.0 | 0.00 | 0.23 | 0.01 | 68 | 996.2 |
| 20260510192912 | 68 | 303 | 1.0 | 3.0 | 0.00 | 0.24 | 0.01 | 67 | 996.3 |
| 20260510192411 | 68 | 303 | 2.0 | 6.0 | 0.00 | 0.25 | 0.01 | 64 | 996.4 |
| 20260510191912 | 68 | 303 | 2.0 | 6.0 | 0.00 | 0.26 | 0.01 | 63 | 996.4 |
| 20260510191405 | 68 | 295 | 1.0 | 4.0 | 0.00 | 0.27 | 0.01 | 64 | 996.4 |
| 20260510190900 | 68 | 321 | 1.0 | 3.0 | 0.00 | 0.27 | 0.01 | 66 | 996.4 |
| 20260510190354 | 68 | 316 | 2.0 | 4.0 | 0.00 | 0.28 | 0.01 | 66 | 996.4 |
| 20260510185847 | 68 | 315 | 2.0 | 4.0 | 0.00 | 0.29 | 0.01 | 66 | 996.5 |
| 20260510185341 | 68 | 325 | 1.0 | 4.0 | 0.00 | 0.29 | 0.01 | 68 | 996.5 |
| 20260510184835 | 67 | 355 | 1.0 | 4.0 | 0.00 | 0.30 | 0.01 | 68 | 996.5 |
| 20260510184330 | 67 | 327 | 1.0 | 4.0 | 0.00 | 0.31 | 0.01 | 68 | 996.5 |
| 20260510183824 | 67 | 309 | 1.0 | 4.0 | 0.00 | 0.32 | 0.01 | 70 | 996.5 |
| 20260510183318 | 66 | 152 | 1.0 | 4.0 | 0.00 | 0.33 | 0.01 | 68 | 996.7 |
| 20260510182811 | 66 | 306 | 1.0 | 4.0 | 0.00 | 0.34 | 0.01 | 69 | 996.7 |
| 20260510182306 | 67 | 307 | 1.0 | 4.0 | 0.00 | 0.35 | 0.01 | 68 | 996.8 |
| 20260510181800 | 67 | 300 | 0.0 | 0.0 | 0.00 | 0.35 | 0.01 | 68 | 996.7 |
| 20260510181255 | 67 | 237 | 0.0 | 0.0 | 0.00 | 0.36 | 0.01 | 69 | 996.5 |
| 20260510180748 | 68 | 237 | 0.0 | 0.0 | 0.00 | 0.37 | 0.01 | 69 | 996.5 |
| 20260510180241 | 68 | 237 | 0.0 | 0.0 | 0.00 | 0.38 | 0.01 | 69 | 996.4 |
| 20260510175735 | 68 | 237 | 0.0 | 0.0 | 0.00 | 0.39 | 0.01 | 69 | 996.5 |
| 20260510175229 | 68 | 237 | 0.0 | 0.0 | 0.00 | 0.39 | 0.01 | 69 | 996.4 |
| 20260510173711 | 67 | 237 | 0.0 | 0.0 | 0.00 | 0.42 | 0.01 | 72 | 996.5 |
| 20260510173206 | 66 | 335 | 0.0 | 0.0 | 0.00 | 0.43 | 0.01 | 75 | 996.5 |
| 20260510172700 | 66 | 335 | 0.0 | 0.0 | 0.00 | 0.44 | 0.01 | 76 | 996.6 |
| 20260510171647 | 65 | 335 | 0.0 | 0.0 | 0.00 | 0.46 | 0.01 | 79 | 996.6 |
| 20260510171142 | 65 | 335 | 0.0 | 0.0 | 0.00 | 0.47 | 0.01 | 80 | 996.7 |
| 20260510170635 | 65 | 335 | 0.0 | 0.0 | 0.00 | 0.49 | 0.01 | 80 | 996.8 |
| 20260510170130 | 65 | 335 | 0.0 | 0.0 | 0.00 | 0.50 | 0.01 | 78 | 997.0 |
| 20260510165624 | 65 | 335 | 0.0 | 0.0 | 0.00 | 0.51 | 0.01 | 76 | 996.9 |
| 20260510165118 | 66 | 330 | 0.0 | 0.0 | 0.00 | 0.51 | 0.01 | 75 | 996.9 |
| 20260510164612 | 66 | 330 | 0.0 | 0.0 | 0.00 | 0.52 | 0.01 | 74 | 997.0 |
| 20260510164106 | 67 | 333 | 0.0 | 0.0 | 0.00 | 0.52 | 0.01 | 72 | 997.0 |
| 20260510163600 | 67 | 250 | 0.0 | 0.0 | 0.00 | 0.53 | 0.01 | 72 | 997.0 |
| 20260510163053 | 67 | 250 | 0.0 | 0.0 | 0.00 | 0.53 | 0.01 | 73 | 997.2 |
| 20260510162547 | 67 | 190 | 0.0 | 0.0 | 0.00 | 0.54 | 0.01 | 73 | 997.2 |
| 20260510162041 | 66 | 167 | 0.0 | 0.0 | 0.00 | 0.55 | 0.01 | 76 | 997.2 |
| 20260510161535 | 65 | 167 | 0.0 | 0.0 | 0.00 | 0.55 | 0.01 | 80 | 997.3 |
| 20260510160017 | 63 | 5 | 0.0 | 1.0 | 0.00 | 0.56 | 0.01 | 81 | 997.3 |
| 20260510155511 | 63 | 5 | 0.0 | 2.0 | 0.00 | 0.57 | 0.01 | 82 | 997.4 |
| 20260510155006 | 62 | 5 | 1.0 | 2.0 | 0.00 | 0.57 | 0.01 | 81 | 997.4 |
| 20260510154500 | 62 | 0 | 1.0 | 2.0 | 0.00 | 0.58 | 0.01 | 82 | 997.4 |
| 20260510153954 | 61 | 0 | 1.0 | 2.0 | 0.00 | 0.58 | 0.01 | 84 | 997.4 |
| 20260510153448 | 60 | 5 | 1.0 | 2.0 | 0.00 | 0.59 | 0.01 | 84 | 997.4 |
| 20260510152941 | 60 | 5 | 1.0 | 2.0 | 0.00 | 0.59 | 0.01 | 86 | 997.4 |
| 20260510152435 | 59 | 339 | 1.0 | 2.0 | 0.00 | 0.60 | 0.01 | 87 | 997.5 |
| 20260510151929 | 59 | 39 | 1.0 | 2.0 | 0.00 | 0.60 | 0.01 | 89 | 997.5 |
| 20260510151423 | 58 | 39 | 1.0 | 3.0 | 0.00 | 0.61 | 0.01 | 88 | 997.5 |
| 20260510150412 | 57 | 26 | 1.0 | 4.0 | 0.00 | 0.61 | 0.01 | 89 | 997.6 |
| 20260510145906 | 57 | 278 | 1.0 | 2.0 | 0.00 | 0.62 | 0.01 | 90 | 997.7 |
| 20260510145406 | 57 | 292 | 0.0 | 2.0 | 0.00 | 0.62 | 0.01 | 91 | 997.6 |
| 20260510144902 | 57 | 292 | 1.0 | 3.0 | 0.00 | 0.63 | 0.01 | 92 | 997.6 |
| 20260510144403 | 56 | 294 | 1.0 | 3.0 | 0.00 | 0.63 | 0.01 | 92 | 997.6 |
| 20260510143905 | 56 | 171 | 0.0 | 3.0 | 0.00 | 0.63 | 0.01 | 92 | 997.6 |
| 20260510143401 | 56 | 167 | 1.0 | 3.0 | 0.00 | 0.64 | 0.01 | 93 | 997.7 |
| 20260510142858 | 56 | 273 | 1.0 | 3.0 | 0.00 | 0.64 | 0.01 | 94 | 997.8 |
| 20260510142357 | 56 | 346 | 1.0 | 3.0 | 0.00 | 0.64 | 0.01 | 94 | 997.8 |
| 20260510141856 | 55 | 15 | 0.0 | 2.0 | 0.00 | 0.64 | 0.01 | 94 | 997.9 |
| 20260510141354 | 55 | 15 | 0.0 | 2.0 | 0.00 | 0.64 | 0.01 | 94 | 998.0 |
| 20260510140855 | 55 | 15 | 0.0 | 2.0 | 0.00 | 0.65 | 0.01 | 94 | 997.9 |
| 20260510140354 | 54 | 15 | 0.0 | 1.0 | 0.00 | 0.65 | 0.01 | 94 | 998.0 |
| 20260510135353 | 54 | 15 | 0.0 | 2.0 | 0.00 | 0.65 | 0.01 | 94 | 998.0 |
| 20260510134852 | 54 | 15 | 0.0 | 2.0 | 0.00 | 0.65 | 0.01 | 94 | 997.9 |
| 20260510134354 | 53 | 5 | 0.0 | 1.0 | 0.00 | 0.65 | 0.01 | 94 | 997.7 |
| 20260510133851 | 53 | 5 | 0.0 | 0.0 | 0.00 | 0.65 | 0.01 | 94 | 997.7 |
| 20260510133351 | 53 | 5 | 0.0 | 0.0 | 0.00 | 0.65 | 0.01 | 94 | 997.7 |
| 20260510132852 | 53 | 5 | 0.0 | 0.0 | 0.00 | 0.65 | 0.01 | 94 | 997.7 |
| 20260510131846 | 52 | 5 | 0.0 | 0.0 | 0.00 | 0.65 | 0.01 | 94 | 997.9 |
| 20260510131348 | 51 | 5 | 0.0 | 0.0 | 0.00 | 0.65 | 0.01 | 94 | 997.9 |
| 20260510130846 | 51 | 5 | 0.0 | 0.0 | 0.00 | 0.65 | 0.01 | 94 | 997.9 |
| 20260510130347 | 51 | 5 | 0.0 | 0.0 | 0.00 | 0.65 | 0.01 | 94 | 998.0 |
| 20260510125848 | 51 | 5 | 0.0 | 0.0 | 0.00 | 0.65 | 0.01 | 94 | 998.0 |
| 20260510125348 | 50 | 5 | 0.0 | 0.0 | 0.00 | 0.65 | 0.01 | 94 | 997.9 |
| 20260510124848 | 50 | 5 | 0.0 | 0.0 | 0.00 | 0.65 | 0.01 | 94 | 997.9 |
| 20260510124348 | 50 | 5 | 0.0 | 1.0 | 0.00 | 0.65 | 0.01 | 94 | 998.0 |
| 20260510123847 | 50 | 5 | 0.0 | 1.0 | 0.00 | 0.65 | 0.01 | 94 | 997.9 |
| 20260510123346 | 49 | 5 | 0.0 | 0.0 | 0.00 | 0.65 | 0.01 | 94 | 997.9 |
| 20260510122846 | 49 | 5 | 0.0 | 1.0 | 0.00 | 0.65 | 0.01 | 94 | 997.8 |
| 20260510122348 | 49 | 5 | 0.0 | 1.0 | 0.00 | 0.65 | 0.01 | 94 | 997.8 |
| 20260510121846 | 49 | 5 | 0.0 | 0.0 | 0.00 | 0.65 | 0.01 | 94 | 997.8 |
| 20260510121348 | 48 | 5 | 0.0 | 0.0 | 0.00 | 0.65 | 0.01 | 94 | 997.7 |
| 20260510120847 | 48 | 5 | 0.0 | 0.0 | 0.00 | 0.65 | 0.01 | 94 | 998.0 |
| 20260510120348 | 48 | 5 | 0.0 | 0.0 | 0.00 | 0.65 | 0.01 | 94 | 998.0 |
| 20260510115339 | 48 | 5 | 0.0 | 1.0 | 0.00 | 0.65 | 0.01 | 94 | 998.2 |
| 20260510114832 | 48 | 5 | 0.0 | 0.0 | 0.00 | 0.65 | 0.01 | 94 | 998.0 |
| 20260510114327 | 48 | 5 | 0.0 | 0.0 | 0.00 | 0.65 | 0.01 | 94 | 998.0 |
| 20260510113820 | 48 | 5 | 0.0 | 0.0 | 0.00 | 0.65 | 0.01 | 94 | 998.0 |
| 20260510113315 | 47 | 5 | 0.0 | 0.0 | 0.00 | 0.65 | 0.01 | 94 | 998.0 |
| 20260510112808 | 47 | 5 | 0.0 | 0.0 | 0.00 | 0.65 | 0.01 | 94 | 997.9 |
| 20260510112305 | 47 | 5 | 0.0 | 0.0 | 0.00 | 0.65 | 0.01 | 94 | 997.8 |
| 20260510111756 | 47 | 5 | 0.0 | 0.0 | 0.00 | 0.65 | 0.01 | 94 | 997.8 |
| 20260510111251 | 47 | 5 | 0.0 | 0.0 | 0.00 | 0.65 | 0.01 | 94 | 997.5 |
| 20260510110745 | 47 | 5 | 0.0 | 0.0 | 0.00 | 0.65 | 0.01 | 94 | 997.5 |
| 20260510110240 | 47 | 5 | 0.0 | 0.0 | 0.00 | 0.65 | 0.01 | 94 | 997.5 |
| 20260510105733 | 47 | 5 | 0.0 | 0.0 | 0.00 | 0.65 | 0.01 | 94 | 997.5 |
| 20260510104720 | 46 | 5 | 0.0 | 0.0 | 0.00 | 0.65 | 0.01 | 93 | 997.2 |
| 20260510104214 | 46 | 5 | 0.0 | 0.0 | 0.00 | 0.65 | 0.01 | 93 | 997.2 |
| 20260510103709 | 46 | 5 | 0.0 | 0.0 | 0.00 | 0.65 | 0.01 | 93 | 997.0 |
| 20260510103202 | 46 | 5 | 0.0 | 0.0 | 0.00 | 0.65 | 0.01 | 93 | 997.2 |
| 20260510102657 | 46 | 5 | 0.0 | 0.0 | 0.00 | 0.65 | 0.01 | 93 | 997.1 |
| 20260510102150 | 46 | 5 | 0.0 | 1.0 | 0.00 | 0.65 | 0.01 | 94 | 996.9 |
| 20260510101138 | 46 | 5 | 0.0 | 1.0 | 0.00 | 0.65 | 0.01 | 93 | 996.8 |
| 20260510100127 | 46 | 5 | 0.0 | 0.0 | 0.00 | 0.65 | 0.01 | 93 | 996.5 |
| 20260510095621 | 46 | 5 | 0.0 | 0.0 | 0.00 | 0.65 | 0.01 | 93 | 996.3 |
| 20260510095114 | 46 | 5 | 0.0 | 1.0 | 0.00 | 0.65 | 0.01 | 93 | 996.5 |
| 20260510094609 | 46 | 5 | 0.0 | 1.0 | 0.00 | 0.65 | 0.01 | 93 | 996.7 |
| 20260510094102 | 46 | 5 | 0.0 | 1.0 | 0.00 | 0.65 | 0.01 | 93 | 996.8 |
| 20260510093557 | 45 | 5 | 0.0 | 1.0 | 0.00 | 0.65 | 0.01 | 93 | 996.9 |
| 20260510093050 | 46 | 5 | 0.0 | 0.0 | 0.00 | 0.65 | 0.01 | 93 | 996.5 |
| 20260510092544 | 45 | 5 | 0.0 | 0.0 | 0.00 | 0.65 | 0.01 | 93 | 996.6 |
| 20260510092038 | 45 | 5 | 0.0 | 0.0 | 0.00 | 0.65 | 0.01 | 93 | 996.6 |
| 20260510091027 | 45 | 5 | 0.0 | 0.0 | 0.00 | 0.65 | 0.01 | 93 | 997.0 |
| 20260510090520 | 45 | 5 | 0.0 | 0.0 | 0.00 | 0.65 | 0.01 | 93 | 996.9 |
| 20260510085509 | 45 | 5 | 0.0 | 0.0 | 0.00 | 0.65 | 0.01 | 93 | 997.0 |
| 20260510084456 | 45 | 5 | 0.0 | 0.0 | 0.00 | 0.65 | 0.01 | 93 | 996.9 |
| 20260510083951 | 45 | 5 | 0.0 | 1.0 | 0.00 | 0.65 | 0.01 | 93 | 996.8 |
| 20260510083444 | 45 | 5 | 0.0 | 1.0 | 0.00 | 0.65 | 0.01 | 93 | 996.8 |
| 20260510082939 | 45 | 5 | 0.0 | 0.0 | 0.00 | 0.65 | 0.01 | 93 | 996.7 |
| 20260510082433 | 45 | 5 | 0.0 | 0.0 | 0.00 | 0.65 | 0.01 | 93 | 996.8 |
| 20260510081420 | 45 | 5 | 0.0 | 0.0 | 0.00 | 0.65 | 0.01 | 93 | 997.0 |
| 20260510080914 | 45 | 5 | 0.0 | 0.0 | 0.00 | 0.65 | 0.01 | 93 | 997.0 |
| 20260510080409 | 45 | 5 | 0.0 | 0.0 | 0.00 | 0.65 | 0.01 | 93 | 996.7 |
| 20260510075902 | 45 | 5 | 0.0 | 0.0 | 0.00 | 0.65 | 0.01 | 93 | 996.7 |
| 20260510075357 | 45 | 5 | 0.0 | 0.0 | 0.00 | 0.65 | 0.01 | 93 | 996.7 |
| 20260510074850 | 45 | 5 | 0.0 | 0.0 | 0.00 | 0.65 | 0.01 | 93 | 996.7 |
| 20260510072840 | 45 | 5 | 0.0 | 0.0 | 0.00 | 0.65 | 0.01 | 93 | 996.7 |
| 20260510072338 | 45 | 5 | 0.0 | 1.0 | 0.00 | 0.65 | 0.01 | 93 | 996.7 |
| 20260510071836 | 45 | 5 | 0.0 | 1.0 | 0.00 | 0.65 | 0.01 | 93 | 996.9 |
| 20260510071337 | 45 | 5 | 0.0 | 1.0 | 0.00 | 0.65 | 0.01 | 93 | 996.6 |
| 20260510070837 | 45 | 5 | 0.0 | 1.0 | 0.00 | 0.65 | 0.01 | 93 | 996.9 |
| 20260510070334 | 45 | 5 | 0.0 | 0.0 | 0.00 | 0.65 | 0.01 | 93 | 997.2 |
| 20260510065832 | 45 | 5 | 0.0 | 0.0 | 0.00 | 0.65 | 0.01 | 93 | 997.1 |
| 20260510065332 | 45 | 5 | 0.0 | 0.0 | 0.00 | 0.65 | 0.01 | 93 | 997.2 |
| 20260510064833 | 45 | 5 | 0.0 | 0.0 | 0.00 | 0.65 | 0.01 | 93 | 997.0 |
| 20260510064330 | 45 | 5 | 0.0 | 0.0 | 0.00 | 0.65 | 0.01 | 93 | 996.9 |
| 20260510063829 | 45 | 5 | 0.0 | 0.0 | 0.00 | 0.65 | 0.01 | 93 | 996.7 |
| 20260510063328 | 45 | 5 | 0.0 | 0.0 | 0.00 | 0.65 | 0.01 | 93 | 996.8 |
| 20260510062828 | 45 | 5 | 0.0 | 0.0 | 0.00 | 0.65 | 0.01 | 93 | 997.0 |
| 20260510062326 | 45 | 5 | 0.0 | 0.0 | 0.00 | 0.65 | 0.01 | 93 | 997.0 |
| 20260510061823 | 45 | 5 | 0.0 | 0.0 | 0.00 | 0.65 | 0.01 | 93 | 997.0 |
| 20260510061322 | 45 | 5 | 0.0 | 0.0 | 0.00 | 0.65 | 0.01 | 93 | 997.0 |
| 20260510060823 | 45 | 5 | 0.0 | 0.0 | 0.00 | 0.65 | 0.01 | 93 | 997.0 |
| 20260510055818 | 45 | 5 | 0.0 | 0.0 | 0.00 | 0.65 | 0.01 | 93 | 997.0 |
| 20260510055318 | 45 | 5 | 0.0 | 0.0 | 0.00 | 0.65 | 0.01 | 93 | 997.0 |
| 20260510054818 | 45 | 5 | 0.0 | 0.0 | 0.00 | 0.65 | 0.01 | 93 | 996.8 |
| 20260510054319 | 45 | 5 | 0.0 | 0.0 | 0.00 | 0.65 | 0.01 | 93 | 997.0 |
| 20260510053818 | 45 | 5 | 0.0 | 0.0 | 0.00 | 0.65 | 0.01 | 93 | 997.1 |
| 20260510053318 | 45 | 5 | 0.0 | 0.0 | 0.00 | 0.65 | 0.01 | 93 | 997.1 |
| 20260510052319 | 45 | 5 | 0.0 | 0.0 | 0.00 | 0.65 | 0.01 | 93 | 997.2 |
| 20260510051815 | 45 | 5 | 0.0 | 0.0 | 0.00 | 0.65 | 0.01 | 93 | 997.3 |
| 20260510051314 | 45 | 5 | 0.0 | 0.0 | 0.00 | 0.65 | 0.01 | 93 | 997.3 |
| 20260510050813 | 45 | 5 | 0.0 | 0.0 | 0.00 | 0.65 | 0.01 | 93 | 997.5 |
| 20260510050314 | 45 | 5 | 0.0 | 0.0 | 0.01 | 0.65 | 0.01 | 93 | 997.5 |
| 20260510045813 | 45 | 5 | 0.0 | 0.0 | 0.01 | 0.65 | 0.01 | 93 | 997.5 |
| 20260510044814 | 45 | 5 | 0.0 | 0.0 | 0.01 | 0.65 | 0.01 | 93 | 997.5 |
| 20260510044315 | 45 | 5 | 0.0 | 0.0 | 0.01 | 0.65 | 0.01 | 93 | 997.4 |
| 20260510043815 | 45 | 5 | 0.0 | 0.0 | 0.01 | 0.65 | 0.01 | 93 | 997.3 |
| 20260510043315 | 45 | 5 | 0.0 | 0.0 | 0.01 | 0.65 | 0.01 | 93 | 997.4 |
| 20260510042814 | 45 | 5 | 0.0 | 0.0 | 0.01 | 0.65 | 0.01 | 93 | 997.5 |
| 20260510042313 | 45 | 5 | 0.0 | 0.0 | 0.01 | 0.65 | 0.01 | 93 | 997.6 |
| 20260510041812 | 45 | 5 | 0.0 | 0.0 | 0.01 | 0.65 | 0.01 | 93 | 997.6 |
| 20260510041311 | 45 | 5 | 0.0 | 0.0 | 0.01 | 0.65 | 0.01 | 93 | 997.6 |
| 20260510040809 | 45 | 5 | 0.0 | 0.0 | 0.01 | 0.65 | 0.01 | 93 | 997.5 |
| 20260510040310 | 45 | 5 | 0.0 | 0.0 | 0.00 | 0.64 | 0.00 | 93 | 997.5 |
| 20260510035807 | 45 | 5 | 0.0 | 0.0 | 0.00 | 0.64 | 0.64 | 93 | 997.4 |
| 20260510035308 | 45 | 5 | 0.0 | 0.0 | 0.00 | 0.64 | 0.64 | 93 | 997.4 |
| 20260510034806 | 45 | 5 | 0.0 | 0.0 | 0.00 | 0.64 | 0.64 | 93 | 997.4 |
| 20260510034308 | 45 | 5 | 0.0 | 0.0 | 0.00 | 0.64 | 0.64 | 93 | 997.4 |
| 20260510033807 | 45 | 5 | 0.0 | 0.0 | 0.00 | 0.64 | 0.64 | 93 | 997.4 |
| 20260510033308 | 45 | 5 | 0.0 | 1.0 | 0.00 | 0.64 | 0.64 | 93 | 997.7 |
| 20260510032804 | 45 | 5 | 0.0 | 1.0 | 0.00 | 0.64 | 0.64 | 93 | 997.9 |
| 20260510032306 | 45 | 5 | 0.0 | 1.0 | 0.00 | 0.64 | 0.64 | 93 | 997.8 |
| 20260510031803 | 45 | 5 | 0.0 | 1.0 | 0.00 | 0.64 | 0.64 | 93 | 997.8 |
| 20260510030803 | 45 | 5 | 0.0 | 1.0 | 0.00 | 0.64 | 0.64 | 93 | 998.0 |
| 20260510025305 | 45 | 5 | 0.0 | 1.0 | 0.00 | 0.64 | 0.64 | 93 | 998.2 |
| 20260510024804 | 45 | 5 | 0.0 | 1.0 | 0.00 | 0.64 | 0.64 | 93 | 998.1 |
| 20260510024257 | 45 | 5 | 0.0 | 0.0 | 0.00 | 0.64 | 0.64 | 93 | 998.1 |
| 20260510023751 | 45 | 5 | 0.0 | 0.0 | 0.00 | 0.64 | 0.64 | 93 | 998.1 |
| 20260510023245 | 45 | 5 | 0.0 | 0.0 | 0.00 | 0.64 | 0.64 | 93 | 998.2 |
| 20260510022739 | 45 | 5 | 0.0 | 0.0 | 0.00 | 0.64 | 0.64 | 93 | 998.2 |
| 20260510022233 | 45 | 5 | 0.0 | 0.0 | 0.00 | 0.64 | 0.64 | 93 | 998.2 |
| 20260510021221 | 45 | 5 | 0.0 | 0.0 | 0.00 | 0.64 | 0.64 | 93 | 998.2 |
| 20260510020715 | 45 | 5 | 0.0 | 0.0 | 0.00 | 0.64 | 0.64 | 93 | 998.2 |
| 20260510020210 | 45 | 5 | 0.0 | 0.0 | 0.00 | 0.64 | 0.64 | 93 | 998.2 |
| 20260510015702 | 45 | 5 | 0.0 | 0.0 | 0.00 | 0.64 | 0.64 | 93 | 998.2 |
| 20260510015156 | 45 | 5 | 0.0 | 0.0 | 0.00 | 0.64 | 0.64 | 92 | 998.3 |
| 20260510014650 | 45 | 5 | 0.0 | 0.0 | 0.00 | 0.64 | 0.64 | 92 | 998.5 |
| 20260510014144 | 45 | 5 | 0.0 | 0.0 | 0.00 | 0.64 | 0.64 | 92 | 998.4 |
| 20260510013638 | 45 | 5 | 0.0 | 0.0 | 0.00 | 0.64 | 0.64 | 92 | 998.4 |
| 20260510012120 | 45 | 5 | 0.0 | 0.0 | 0.00 | 0.64 | 0.64 | 93 | 998.4 |
| 20260510011614 | 45 | 5 | 0.0 | 0.0 | 0.00 | 0.64 | 0.64 | 92 | 998.4 |
| 20260510011108 | 45 | 5 | 0.0 | 0.0 | 0.00 | 0.64 | 0.64 | 93 | 998.3 |
| 20260510010602 | 45 | 5 | 0.0 | 0.0 | 0.00 | 0.64 | 0.64 | 93 | 998.3 |
| 20260510010057 | 45 | 5 | 0.0 | 0.0 | 0.00 | 0.64 | 0.64 | 93 | 998.3 |
| 20260510005551 | 45 | 5 | 0.0 | 0.0 | 0.00 | 0.64 | 0.64 | 93 | 998.2 |
| 20260510005045 | 45 | 5 | 0.0 | 0.0 | 0.00 | 0.64 | 0.64 | 93 | 998.2 |
| 20260510004033 | 45 | 5 | 0.0 | 0.0 | 0.00 | 0.64 | 0.64 | 92 | 998.1 |
| 20260510003527 | 45 | 5 | 0.0 | 0.0 | 0.00 | 0.64 | 0.64 | 92 | 998.2 |
| 20260510003021 | 45 | 5 | 0.0 | 0.0 | 0.00 | 0.64 | 0.64 | 92 | 998.1 |
| 20260510002515 | 45 | 5 | 0.0 | 1.0 | 0.00 | 0.64 | 0.64 | 92 | 998.0 |
| 20260510000957 | 45 | 5 | 0.0 | 0.0 | 0.00 | 0.64 | 0.64 | 92 | 998.0 |
| 20260510000451 | 45 | 5 | 0.0 | 0.0 | 0.00 | 0.64 | 0.64 | 92 | 997.9 |
| 20260509235945 | 45 | 5 | 0.0 | 0.0 | 0.00 | 0.64 | 0.64 | 92 | 997.9 |
| 20260509235439 | 45 | 5 | 0.0 | 1.0 | 0.00 | 0.64 | 0.64 | 92 | 997.9 |
| 20260509234932 | 45 | 5 | 0.0 | 1.0 | 0.00 | 0.64 | 0.64 | 92 | 997.8 |
| 20260509234426 | 45 | 5 | 0.0 | 0.0 | 0.00 | 0.64 | 0.64 | 92 | 997.9 |
| 20260509233920 | 45 | 5 | 0.0 | 0.0 | 0.00 | 0.64 | 0.64 | 92 | 997.8 |
| 20260509233414 | 45 | 5 | 0.0 | 1.0 | 0.00 | 0.64 | 0.64 | 92 | 997.8 |
| 20260509232908 | 45 | 5 | 0.0 | 1.0 | 0.00 | 0.64 | 0.64 | 92 | 997.7 |
| 20260509232402 | 45 | 5 | 0.0 | 1.0 | 0.00 | 0.64 | 0.64 | 92 | 997.7 |
| 20260509231856 | 45 | 5 | 0.0 | 1.0 | 0.00 | 0.64 | 0.64 | 92 | 997.6 |
| 20260509230845 | 45 | 5 | 0.0 | 0.0 | 0.00 | 0.64 | 0.64 | 92 | 997.7 |